1484301600.42,26034,5.5,71598.3,-5.21,-11.15,-10.57,0,*52
1484301601.71,26035,5.5,71602.0,-5.19,-11.29,-10.71,0,*53
1484301602.93,26036,5.5,71600.3,-5.21,-11.15,-10.45,0,*53
1484301604.14,26037,5.5,71600.3,-5.21,-11.01,-10.45,0,*57
1484301605.36,26038,5.5,71602.3,-5.21,-10.97,-10.31,0,*55
1484301606.58,26039,5.5,71600.0,-5.21,-10.97,-10.45,0,*57
1484301607.79,26040,5.5,71604.3,-5.25,-11.15,-10.49,0,*5A
1484301609.01,26041,5.5,71602.8,-5.25,-10.93,-10.31,0,*5B
1484301610.25,26042,5.5,71606.3,-5.27,-10.89,-10.19,0,*5B
1484301611.49,26043,5.5,71606.8,-5.27,-10.93,-10.31,0,*5B
1484301612.76,26044,5.56,71606.3,-5.25,-11.07,-10.41,0,*55
1484301614.02,26045,5.5,71602.5,-5.27,-11.19,-10.67,0,*5D
1484301615.29,26046,5.5,71598.8,-5.27,-10.75,-10.19,0,*5C
1484301616.51,26047,5.5,71598.0,-5.25,-10.93,-10.35,0,*59
1484301617.77,26048,5.5,71596.5,-5.25,-11.33,-10.79,0,*55
1484301619.04,26049,5.5,71598.0,-5.27,-11.07,-10.53,0,*59
1484301620.3,26050,5.5,71598.3,-5.27,-10.93,-10.41,0,*5E
1484301621.57,26051,5.5,71594.8,-5.27,-10.79,-10.31,0,*5C
1484301622.83,26052,5.5,71594.3,-5.27,-10.79,-10.23,0,*5C
1484301624.09,26053,5.5,71594.5,-5.27,-10.79,-10.35,0,*5A
1484301625.33,26054,5.5,71592.8,-5.27,-10.49,-10.09,0,*51
1484301626.59,26055,5.5,71596.8,-5.27,-10.63,-10.09,0,*58
1484301627.88,26056,5.5,71602.3,-5.27,-10.67,-10.41,0,*53
1484301629.14,26057,5.5,71598.8,-5.27,-11.19,-10.79,0,*51
1484301630.44,26058,5.5,71600.0,-5.27,-11.07,-10.67,0,*5E
1484301631.71,26059,5.5,71606.0,-5.27,-11.01,-10.67,0,*59
1484301632.97,26060,5.5,71602.3,-5.27,-10.67,-10.23,0,*52
1484301634.22,26061,5.5,71604.3,-5.29,-10.71,-10.35,0,*5D
1484301635.44,26062,5.5,71602.3,-5.29,-10.53,-10.15,0,*5C
1484301636.71,26063,5.5,71602.0,-5.29,-11.07,-10.67,0,*58
1484301637.97,26064,5.5,71600.3,-5.27,-11.15,-10.79,0,*5D
1484301639.24,26065,5.5,71602.5,-5.27,-11.01,-10.63,0,*52
1484301640.48,26066,5.5,71602.8,-5.29,-10.71,-10.23,0,*5D
1484301641.7,26067,5.5,71604.5,-5.29,-10.93,-10.57,0,*53
1484301642.91,26068,5.5,71600.8,-5.29,-10.85,-10.45,0,*58
1484301644.13,26069,5.5,71600.8,-5.29,-10.57,-10.23,0,*56
1484301645.34,26070,5.5,71600.0,-5.29,-10.85,-10.53,0,*56
1484301646.56,26071,5.5,71594.3,-5.29,-10.85,-10.45,0,*50
1484301647.8,26072,5.5,71592.8,-5.29,-11.11,-10.67,0,*5F
1484301649.08,26073,5.5,71596.8,-5.29,-11.07,-10.67,0,*59
1484301650.32,26074,5.56,71602.5,-5.29,-10.71,-10.35,0,*59
1484301651.56,26075,5.5,71600.5,-5.27,-10.19,-9.79,0,*68
1484301652.79,26076,5.5,71602.8,-5.27,-10.19,-9.79,0,*6B
1484301654.03,26077,5.5,71600.3,-5.27,-10.09,-9.57,0,*67
1484301655.26,26078,5.5,71602.3,-5.25,-10.05,-9.53,0,*62
1484301656.48,26079,5.5,71602.3,-5.25,-10.05,-9.53,0,*63
1484301657.68,26080,5.5,71604.0,-5.25,-10.05,-9.67,0,*62
1484301658.95,26081,5.5,71600.8,-5.19,-10.75,-10.31,0,*50
1484301660.18,26082,5.5,71598.8,-5.21,-11.29,-10.85,0,*5F
1484301661.4,26083,5.5,71594.5,-5.21,-11.45,-11.01,0,*59
1484301662.64,26084,5.5,71592.5,-5.21,-11.67,-11.15,0,*5B
1484301663.89,26085,5.5,71592.5,-5.25,-11.73,-11.33,0,*5F
1484301665.15,26086,5.5,71596.5,-5.27,-11.77,-11.19,0,*52
1484301666.43,26087,5.5,71594.8,-5.27,-11.33,-10.79,0,*54
1484301667.68,26088,5.5,71596.5,-5.27,-10.89,-10.35,0,*53
1484301668.94,26089,5.5,71602.3,-5.27,-11.33,-10.93,0,*5E
1484301670.2,26090,5.5,71588.5,-5.27,-11.63,-11.15,0,*5C
1484301671.46,26091,5.5,71588.5,-5.27,-11.51,-11.01,0,*59
1484301672.72,26092,5.5,71596.3,-5.27,-11.07,-10.53,0,*5F
1484301673.98,26093,5.5,71594.3,-5.27,-11.37,-11.01,0,*5B
1484301675.24,26094,5.5,71596.8,-5.27,-11.37,-10.89,0,*5D
1484301676.5,26095,5.5,71596.8,-5.31,-11.33,-10.85,0,*53
1484301677.74,26096,5.56,71602.5,-5.29,-11.37,-10.93,0,*5A
1484301679.0,26097,5.5,71602.0,-5.31,-11.37,-10.93,0,*52
1484301680.22,26098,5.56,71604.8,-5.29,-11.41,-10.93,0,*55
1484301681.44,26099,5.5,71600.0,-5.29,-10.93,-10.45,0,*51
1484301682.7,26100,5.5,71600.5,-5.31,-11.11,-10.67,0,*52
1484301683.94,26101,5.5,71602.5,-5.29,-11.11,-10.71,0,*5D
1484301685.16,26102,5.5,71606.0,-5.29,-11.41,-10.93,0,*57
1484301686.44,26103,5.5,71600.3,-5.31,-11.81,-11.33,0,*58
1484301687.68,26104,5.5,71600.8,-5.29,-11.67,-11.19,0,*56
1484301688.97,26105,5.5,71604.5,-5.31,-11.63,-11.07,0,*55
1484301690.23,26106,5.5,71600.3,-5.31,-11.81,-11.41,0,*58
1484301691.51,26107,5.5,71600.0,-5.31,-11.81,-11.33,0,*5C
1484301692.77,26108,5.5,71600.3,-5.33,-11.81,-11.41,0,*54
1484301694.02,26109,5.5,71598.0,-5.35,-11.85,-11.55,0,*52
1484301695.28,26110,5.5,71602.3,-5.35,-11.73,-11.29,0,*58
1484301696.5,26111,5.56,71604.8,-5.35,-11.73,-11.23,0,*53
1484301697.73,26112,5.5,71600.0,-5.35,-11.55,-11.11,0,*55
1484301698.96,26113,5.56,71606.0,-5.35,-11.73,-11.23,0,*51
1484301700.19,26114,5.5,71600.5,-5.35,-11.85,-11.41,0,*5B
1484301701.43,26115,5.56,71600.8,-5.39,-11.63,-11.19,0,*53
1484301702.66,26116,5.5,71598.3,-5.39,-11.73,-11.41,0,*5C
1484301703.9,26117,5.5,71598.5,-5.39,-11.45,-11.07,0,*5A
1484301705.14,26118,5.56,71602.8,-5.39,-11.45,-11.07,0,*55
1484301706.4,26119,5.5,71598.3,-5.39,-11.59,-11.29,0,*55
1484301707.63,26120,5.5,71592.5,-5.39,-11.85,-11.41,0,*50
1484301708.87,26121,5.5,71592.8,-5.41,-11.45,-11.19,0,*5F
1484301710.16,26122,5.5,71594.0,-5.41,-11.77,-11.37,0,*51
1484301711.42,26123,5.56,71598.0,-5.41,-11.55,-11.23,0,*55
1484301712.7,26124,5.5,71590.0,-5.41,-11.55,-11.33,0,*53
1484301713.95,26125,5.5,71592.5,-5.39,-11.85,-11.59,0,*5C
1484301715.24,26126,5.5,71592.3,-5.41,-11.67,-11.33,0,*50
1484301716.53,26127,5.5,71598.5,-5.41,-12.15,-11.89,0,*56
1484301717.82,26128,5.5,71596.5,-5.41,-12.15,-11.89,0,*59
1484301719.07,26129,5.5,71600.3,-5.43,-11.81,-11.55,0,*55
1484301720.34,26130,5.56,71600.5,-5.45,-12.25,-12.07,0,*52
1484301721.61,26131,5.56,71600.5,-5.45,-12.25,-11.93,0,*5D
1484301722.89,26132,5.5,71600.5,-5.45,-11.97,-11.73,0,*5A
1484301724.18,26133,5.5,71606.3,-5.45,-11.85,-11.67,0,*5D
1484301725.45,26134,5.5,71604.0,-5.45,-11.59,-11.41,0,*5F
1484301726.71,26135,5.5,71604.8,-5.45,-11.51,-11.23,0,*52
1484301727.99,26136,5.5,71604.8,-5.45,-11.73,-11.55,0,*50
1484301729.28,26137,5.5,71604.0,-5.45,-11.93,-11.85,0,*52
1484301730.55,26138,5.5,71598.0,-5.45,-12.21,-11.97,0,*54
1484301731.84,26139,5.56,71600.8,-5.49,-11.97,-11.63,0,*5C
1484301733.13,26140,5.5,71600.5,-5.45,-11.93,-11.73,0,*5B
1484301734.38,26141,5.56,71604.0,-5.49,-12.03,-11.85,0,*55
1484301735.62,26142,5.5,71600.3,-5.49,-12.43,-12.25,0,*5B
1484301736.85,26143,5.56,71598.0,-5.51,-12.39,-12.11,0,*59
1484301738.11,26144,5.5,71592.5,-5.51,-12.15,-11.89,0,*52
1484301739.39,26145,5.56,71598.5,-5.53,-11.81,-11.51,0,*5A
1484301740.68,26146,5.5,71596.5,-5.53,-12.15,-12.07,0,*57
1484301741.91,26147,5.5,71598.3,-5.51,-12.03,-11.85,0,*5A
1484301743.18,26148,5.5,71596.8,-5.53,-12.29,-12.07,0,*56
1484301744.47,26149,5.5,71598.8,-5.53,-12.65,-12.35,0,*5E
1484301745.73,26150,5.56,71598.3,-5.53,-12.47,-12.15,0,*54
1484301747.01,26151,5.56,71598.5,-5.57,-11.93,-11.37,0,*58
1484301748.25,26152,5.5,71598.0,-5.55,-11.67,-11.19,0,*5E
1484301749.5,26153,5.56,71600.5,-5.55,-11.89,-11.37,0,*53
1484301750.75,26154,5.56,71600.8,-5.55,-11.81,-11.37,0,*5C
1484301752.04,26155,5.56,71600.0,-5.57,-12.07,-11.67,0,*57
1484301753.33,26156,5.56,71596.0,-5.57,-11.85,-11.63,0,*59
1484301754.54,26157,5.56,71594.0,-5.55,-11.45,-11.23,0,*52
1484301755.77,26158,5.5,71592.0,-5.55,-11.37,-11.23,0,*58
1484301757.03,26159,5.56,71592.3,-5.53,-11.37,-11.23,0,*5F
1484301758.28,26160,5.56,71590.3,-5.57,-11.37,-11.23,0,*51
1484301759.51,26161,5.56,71594.5,-5.55,-11.37,-11.19,0,*5B
1484301760.74,26162,5.56,71592.0,-5.55,-11.11,-10.79,0,*5B
1484301761.98,26163,5.56,71592.0,-5.55,-11.23,-11.07,0,*53
1484301763.21,26164,5.56,71590.0,-5.55,-11.37,-11.19,0,*5E
1484301764.47,26165,5.56,71592.3,-5.55,-11.67,-11.37,0,*56
1484301765.69,26166,5.56,71590.8,-5.55,-12.03,-11.77,0,*50
1484301766.95,26167,5.56,71594.5,-5.57,-12.39,-12.11,0,*59
1484301768.18,26168,5.56,71590.3,-5.55,-12.43,-12.15,0,*5D
1484301769.38,26169,5.56,71590.3,-5.55,-12.43,-12.29,0,*53
1484301770.67,26170,5.56,71594.3,-5.57,-12.65,-12.57,0,*54
1484301771.93,26171,5.56,71592.5,-5.61,-12.29,-12.11,0,*5A
1484301773.19,26172,5.56,71592.3,-5.63,-11.97,-11.73,0,*5A
1484301774.47,26173,5.56,71594.0,-5.61,-11.59,-11.33,0,*5F
1484301775.71,26174,5.5,71592.8,-5.63,-11.33,-10.89,0,*56
1484301776.95,26175,5.56,71594.5,-5.61,-11.01,-10.57,0,*57
1484301778.19,26176,5.5,71592.5,-5.61,-10.89,-10.57,0,*55
1484301779.49,26177,5.56,71594.8,-5.61,-11.29,-11.07,0,*5B
1484301780.72,26178,5.56,71594.3,-5.61,-11.19,-11.15,0,*54
1484301781.98,26179,5.56,71592.5,-5.61,-11.59,-11.41,0,*50
1484301783.27,26180,5.56,71592.5,-5.57,-11.29,-11.29,0,*5A
1484301784.56,26181,5.5,71594.3,-5.57,-11.67,-11.73,0,*5E
1484301785.84,26182,5.5,71594.0,-5.57,-11.73,-11.93,0,*56
1484301787.1,26183,5.56,71596.0,-5.63,-11.33,-11.59,0,*52
1484301788.39,26184,5.5,71596.8,-5.61,-11.33,-11.67,0,*5A
1484301789.65,26185,5.56,71600.0,-5.63,-11.73,-12.15,0,*5B
1484301790.88,26186,5.5,71596.5,-5.63,-11.73,-12.25,0,*5B
1484301792.14,26187,5.56,71600.5,-5.63,-11.29,-11.73,0,*55
1484301793.38,26188,5.56,71600.3,-5.63,-11.15,-11.59,0,*5D
1484301794.63,26189,5.56,71602.0,-5.63,-10.75,-11.33,0,*57
1484301795.86,26190,5.56,71600.8,-5.63,-11.19,-11.67,0,*55
1484301797.12,26191,5.56,71602.3,-5.63,-11.07,-11.59,0,*56
1484301798.34,26192,5.56,71598.8,-5.63,-11.41,-12.03,0,*5B
1484301799.6,26193,5.5,71598.8,-5.63,-11.33,-11.89,0,*5E
1484301800.83,26194,5.56,71600.8,-5.63,-11.19,-11.73,0,*54
1484301802.1,26195,5.56,71600.8,-5.61,-11.55,-12.03,0,*5B
1484301803.39,26196,5.56,71606.3,-5.61,-11.55,-12.11,0,*5B
1484301804.62,26197,5.56,71606.3,-5.63,-11.19,-11.67,0,*52
1484301805.86,26198,5.56,71600.0,-5.63,-11.41,-11.89,0,*50
1484301807.12,26199,5.56,71600.8,-5.61,-11.89,-12.39,0,*5F
1484301808.36,26200,5.56,71596.3,-5.63,-11.73,-12.25,0,*56
1484301809.62,26201,5.56,71598.8,-5.63,-11.29,-11.67,0,*5D
1484301810.91,26202,5.56,71598.8,-5.61,-11.29,-11.59,0,*51
1484301812.15,26203,5.56,71600.3,-5.63,-11.07,-11.41,0,*57
1484301813.44,26204,5.56,71602.5,-5.61,-10.75,-11.29,0,*58
1484301814.7,26205,5.56,71602.0,-5.61,-11.19,-11.73,0,*5D
1484301815.96,26206,5.56,71604.5,-5.57,-11.15,-11.63,0,*56
1484301817.25,26207,5.56,71602.3,-5.61,-11.29,-11.89,0,*59
1484301818.51,26208,5.56,71604.8,-5.61,-11.15,-11.77,0,*58
1484301819.8,26209,5.56,71600.8,-5.61,-11.55,-12.15,0,*5A
1484301821.08,26210,5.56,71602.3,-5.57,-11.67,-12.11,0,*52
1484301822.38,26211,5.56,71600.0,-5.57,-11.93,-12.35,0,*5E
1484301823.67,26212,5.56,71602.8,-5.57,-11.93,-12.35,0,*5D
1484301824.93,26213,5.56,71602.0,-5.57,-11.85,-12.21,0,*5E
1484301826.21,26214,5.56,71602.3,-5.57,-11.73,-12.11,0,*53
1484301827.48,26215,5.5,71600.3,-5.57,-11.93,-12.21,0,*5F
1484301828.77,26216,5.56,71602.0,-5.57,-11.63,-11.97,0,*5D
1484301830.06,26217,5.5,71598.5,-5.57,-11.97,-12.35,0,*5C
1484301831.35,26218,5.56,71602.8,-5.57,-12.07,-12.35,0,*59
1484301832.61,26219,5.56,71600.0,-5.57,-11.93,-12.25,0,*57
1484301833.87,26220,5.56,71598.0,-5.57,-12.07,-12.47,0,*57
1484301835.13,26221,5.56,71602.3,-5.57,-12.07,-12.39,0,*5F
1484301836.42,26222,5.5,71602.5,-5.57,-12.11,-12.57,0,*53
1484301837.62,26223,5.56,71600.5,-5.63,-12.03,-12.39,0,*5E
1484301838.91,26224,5.56,71604.8,-5.61,-11.85,-12.15,0,*58
1484301840.17,26225,5.5,71600.5,-5.61,-11.45,-11.77,0,*52
1484301841.46,26226,5.56,71608.3,-5.61,-11.59,-11.97,0,*52
1484301842.73,26227,5.56,71608.0,-5.61,-11.59,-12.03,0,*5D
1484301843.99,26228,5.56,71608.8,-5.57,-11.67,-12.25,0,*5E
1484301845.28,26229,5.56,71606.5,-5.57,-11.63,-12.07,0,*5B
1484301846.51,26230,5.56,71604.8,-5.55,-11.63,-12.03,0,*55
1484301847.77,26231,5.56,71602.8,-5.57,-11.73,-12.25,0,*53
1484301848.99,26232,5.5,71602.3,-5.55,-12.03,-12.65,0,*52
1484301850.26,26233,5.56,71604.3,-5.55,-11.93,-12.35,0,*5C
1484301851.49,26234,5.56,71602.5,-5.55,-11.77,-12.21,0,*54
1484301852.75,26235,5.56,71600.3,-5.55,-11.63,-12.07,0,*54
1484301853.99,26236,5.56,71600.8,-5.55,-11.89,-12.29,0,*5F
1484301855.25,26237,5.56,71602.5,-5.57,-11.81,-12.21,0,*5C
1484301856.5,26238,5.56,71600.8,-5.55,-11.63,-12.15,0,*5A
1484301857.76,26239,5.56,71602.8,-5.55,-11.63,-12.07,0,*58
1484301859.03,26240,5.5,71600.3,-5.53,-11.63,-12.21,0,*54
1484301860.32,26241,5.56,71604.0,-5.53,-11.89,-12.53,0,*54
1484301861.55,26242,5.56,71602.8,-5.55,-11.81,-12.29,0,*54
1484301862.84,26243,5.56,71598.8,-5.53,-11.63,-12.15,0,*50
1484301864.1,26244,5.56,71602.3,-5.51,-11.89,-12.61,0,*52
1484301865.35,26245,5.56,71600.0,-5.53,-12.03,-12.65,0,*54
1484301866.59,26246,5.56,71598.3,-5.53,-12.29,-12.89,0,*5D
1484301867.87,26247,5.56,71594.8,-5.53,-12.53,-13.19,0,*59
1484301869.13,26248,5.56,71594.3,-5.53,-12.29,-13.01,0,*52
1484301870.34,26249,5.56,71594.5,-5.55,-12.21,-12.89,0,*5C
1484301871.57,26250,5.56,71596.8,-5.55,-12.35,-13.15,0,*55
1484301872.86,26251,5.56,71596.0,-5.57,-12.07,-12.75,0,*50
1484301874.12,26252,5.56,71598.5,-5.55,-11.89,-12.53,0,*50
1484301875.38,26253,5.56,71602.0,-5.55,-11.89,-12.53,0,*51
1484301876.61,26254,5.56,71602.5,-5.55,-12.07,-12.89,0,*54
1484301877.85,26255,5.56,71600.0,-5.55,-12.03,-12.79,0,*5E
1484301879.11,26256,5.56,71602.0,-5.57,-12.11,-12.93,0,*58
1484301880.36,26257,5.56,71598.8,-5.55,-11.89,-12.65,0,*50
1484301881.57,26258,5.56,71598.0,-5.55,-12.03,-12.89,0,*5C
1484301882.86,26259,5.56,71592.8,-5.53,-11.93,-12.79,0,*5E
1484301884.13,26260,5.56,71592.8,-5.53,-11.93,-12.89,0,*5B
1484301885.34,26261,5.56,71598.8,-5.55,-12.21,-13.15,0,*52
1484301886.57,26262,5.56,71596.8,-5.55,-12.07,-13.07,0,*56
1484301887.81,26263,5.56,71596.3,-5.57,-12.21,-13.07,0,*51
1484301889.01,26264,5.56,71596.5,-5.55,-12.03,-13.07,0,*54
1484301890.24,26265,5.56,71600.0,-5.55,-12.07,-13.07,0,*51
1484301891.49,26266,5.56,71598.3,-5.53,-12.21,-13.19,0,*5F
1484301892.72,26267,5.56,71596.3,-5.55,-12.07,-13.07,0,*53
1484301893.95,26268,5.56,71598.3,-5.55,-11.81,-12.89,0,*56
1484301895.21,26269,5.56,71596.5,-5.57,-11.85,-12.97,0,*5E
1484301896.49,26270,5.5,71598.8,-5.57,-11.81,-12.75,0,*5E
1484301897.72,26271,5.5,71596.8,-5.55,-11.67,-12.89,0,*56
1484301898.95,26272,5.56,71598.8,-5.55,-11.81,-13.07,0,*5A
1484301900.21,26273,5.56,71600.0,-5.55,-11.63,-12.75,0,*53
1484301901.45,26274,5.56,71598.0,-5.55,-11.67,-12.89,0,*53
1484301902.68,26275,5.56,71600.3,-5.55,-11.59,-12.89,0,*5F
1484301903.91,26276,5.56,71602.3,-5.51,-11.73,-12.97,0,*5F
1484301905.2,26277,5.56,71602.3,-5.53,-11.67,-13.01,0,*57
1484301906.46,26278,5.56,71600.5,-5.53,-11.63,-12.93,0,*56
1484301907.72,26279,5.56,71602.8,-5.53,-12.03,-13.33,0,*59
1484301908.96,26280,5.56,71598.8,-5.55,-11.93,-13.43,0,*54
1484301910.19,26281,5.56,71598.0,-5.55,-11.89,-13.19,0,*51
1484301911.43,26282,5.56,71594.3,-5.55,-11.51,-12.93,0,*54
1484301912.71,26283,5.56,71596.8,-5.53,-11.67,-13.01,0,*5C
1484301913.96,26284,5.56,71594.5,-5.55,-11.59,-13.01,0,*50
1484301915.19,26285,5.56,71594.8,-5.55,-11.51,-12.93,0,*53
1484301916.45,26286,5.56,71594.8,-5.53,-11.59,-13.07,0,*52
1484301917.69,26287,5.56,71596.5,-5.53,-12.03,-13.51,0,*5C
1484301918.95,26288,5.56,71596.5,-5.53,-12.07,-13.73,0,*57
1484301920.21,26289,5.56,71602.3,-5.53,-12.07,-13.65,0,*51
1484301921.47,26290,5.56,71602.0,-5.53,-12.21,-13.79,0,*50
1484301922.73,26291,5.56,71602.0,-5.53,-11.89,-13.51,0,*5A
1484301923.96,26292,5.5,71594.5,-5.55,-11.67,-13.43,0,*5C
1484301925.24,26293,5.56,71598.3,-5.53,-12.07,-13.79,0,*57
1484301926.47,26294,5.56,71596.3,-5.53,-11.45,-13.15,0,*5F
1484301927.74,26295,5.56,71594.3,-5.53,-11.51,-13.19,0,*57
1484301929.02,26296,5.56,71592.3,-5.53,-11.33,-13.01,0,*59
1484301930.26,26297,5.56,71592.8,-5.53,-11.45,-13.15,0,*5C
1484301931.53,26298,5.56,71594.8,-5.53,-11.51,-13.19,0,*5A
1484301932.79,26299,5.56,71594.3,-5.51,-11.29,-13.01,0,*5F
1484301934.02,26300,5.56,71598.0,-5.51,-11.55,-13.43,0,*53
1484301935.27,26301,5.56,71598.3,-5.53,-11.77,-13.73,0,*53
1484301936.5,26302,5.56,71600.8,-5.51,-11.85,-13.73,0,*5F
1484301937.79,26303,5.56,71602.5,-5.53,-11.89,-13.87,0,*5B
1484301939.04,26304,5.56,71598.5,-5.51,-11.55,-13.37,0,*54
1484301940.28,26305,5.56,71600.5,-5.53,-11.23,-13.15,0,*56
1484301941.49,26306,5.56,71596.0,-5.51,-11.45,-13.55,0,*53
1484301942.75,26307,5.56,71592.3,-5.51,-11.55,-13.61,0,*54
1484301944.01,26308,5.56,71602.3,-5.51,-11.59,-13.61,0,*57
1484301945.22,26309,5.56,71598.3,-5.51,-11.19,-13.23,0,*54
1484301946.45,26310,5.56,71592.8,-5.49,-11.15,-13.23,0,*59
1484301947.71,26311,5.56,71596.3,-5.49,-11.15,-13.29,0,*52
1484301948.97,26312,5.56,71598.8,-5.45,-11.29,-13.43,0,*5E
1484301950.25,26313,5.56,71596.3,-5.49,-11.29,-13.37,0,*50
1484301951.51,26314,5.56,71596.0,-5.45,-11.37,-13.65,0,*53
1484301952.77,26315,5.56,71598.5,-5.45,-11.37,-13.65,0,*52
1484301954.0,26316,5.56,71600.0,-5.45,-11.11,-13.23,0,*57
1484301955.24,26317,5.56,71602.3,-5.45,-11.01,-13.23,0,*57
1484301956.5,26318,5.56,71600.8,-5.45,-11.37,-13.55,0,*5C
1484301957.78,26319,5.56,71604.3,-5.45,-11.51,-13.79,0,*53
1484301959.04,26320,5.56,71604.5,-5.45,-11.93,-14.11,0,*5E
1484301960.29,26321,5.56,71602.0,-5.45,-11.73,-13.93,0,*5C
1484301961.58,26322,5.56,71598.5,-5.45,-11.73,-13.97,0,*5B
1484301962.83,26323,5.56,71598.3,-5.45,-11.51,-13.69,0,*5B
1484301964.1,26324,5.56,71600.8,-5.45,-11.29,-13.65,0,*5F
1484301965.35,26325,5.56,71604.0,-5.45,-11.59,-13.93,0,*50
1484301966.61,26326,5.56,71600.5,-5.45,-11.59,-13.93,0,*53
1484301967.9,26327,5.56,71600.8,-5.45,-11.59,-13.97,0,*56
1484301969.19,26328,5.56,71596.0,-5.45,-11.67,-14.05,0,*58
1484301970.48,26329,5.56,71594.3,-5.45,-11.55,-13.97,0,*54
1484301971.76,26330,5.56,71594.5,-5.45,-11.51,-13.83,0,*5D
1484301973.05,26331,5.56,71590.8,-5.45,-11.55,-14.05,0,*51
1484301974.31,26332,5.56,71592.3,-5.45,-11.81,-14.23,0,*5F
1484301975.56,26333,5.56,71594.5,-5.45,-11.73,-14.19,0,*5A
1484301976.82,26334,5.56,71596.3,-5.45,-11.67,-14.11,0,*50
1484301978.09,26335,5.56,71596.3,-5.45,-11.93,-14.37,0,*5E
1484301979.34,26336,5.56,71594.8,-5.49,-11.85,-14.33,0,*52
1484301980.6,26337,5.56,71596.8,-5.49,-11.55,-14.15,0,*5A
1484301981.88,26338,5.56,71598.8,-5.49,-11.33,-13.87,0,*59
1484301983.17,26339,5.56,71602.0,-5.45,-11.37,-13.97,0,*51
1484301984.46,26340,5.56,71600.8,-5.49,-11.33,-14.01,0,*5F
1484301985.72,26341,5.56,71602.8,-5.45,-11.55,-14.19,0,*5B
1484301986.97,26342,5.56,71604.0,-5.45,-11.37,-13.93,0,*59
1484301988.23,26343,5.56,71602.8,-5.45,-11.67,-14.29,0,*5B
1484301989.47,26344,5.56,71600.5,-5.45,-11.41,-14.19,0,*5B
1484301990.73,26345,5.56,71600.8,-5.45,-11.55,-14.29,0,*5C
1484301991.97,26346,5.56,71598.3,-5.45,-11.23,-13.93,0,*58
1484301993.2,26347,5.56,71602.0,-5.45,-11.01,-13.69,0,*5C
1484301994.46,26348,5.56,71604.0,-5.45,-11.01,-13.79,0,*52
1484301995.69,26349,5.56,71596.5,-5.43,-11.11,-13.87,0,*55
1484301996.98,26350,5.56,71596.5,-5.45,-11.29,-13.97,0,*51
1484301998.22,26351,5.56,71598.8,-5.43,-11.55,-14.23,0,*55
1484301999.5,26352,5.56,71592.0,-5.45,-11.97,-14.79,0,*51
1484302000.77,26353,5.56,71594.3,-5.45,-11.93,-14.65,0,*59
1484302002.04,26354,5.56,71592.0,-5.43,-11.63,-14.51,0,*50
1484302003.32,26355,5.56,71594.0,-5.45,-11.73,-14.51,0,*56
1484302004.54,26356,5.56,71596.3,-5.43,-11.45,-14.23,0,*53
1484302005.77,26357,5.56,71598.8,-5.43,-11.33,-14.23,0,*53
1484302007.03,26358,5.56,71596.0,-5.45,-11.81,-14.69,0,*5D
1484302008.32,26359,5.56,71592.5,-5.45,-11.55,-14.51,0,*5E
1484302009.61,26360,5.56,71594.8,-5.45,-11.67,-14.55,0,*51
1484302010.88,26361,5.56,71594.0,-5.45,-11.51,-14.43,0,*52
1484302012.17,26362,5.56,71592.8,-5.45,-11.59,-14.51,0,*5A
1484302013.41,26363,5.56,71594.3,-5.45,-11.23,-14.11,0,*52
1484302014.61,26364,5.56,71596.0,-5.43,-11.19,-14.15,0,*5E
1484302015.87,26365,5.56,71592.5,-5.45,-11.41,-14.43,0,*57
1484302017.13,26366,5.56,71598.3,-5.43,-11.55,-14.51,0,*54
1484302018.37,26367,5.56,71594.0,-5.43,-11.33,-14.19,0,*59
1484302019.6,26368,5.56,71592.3,-5.43,-11.07,-14.15,0,*5D
1484302020.87,26369,5.56,71594.3,-5.45,-11.29,-14.29,0,*59
1484302022.13,26370,5.56,71592.3,-5.43,-11.67,-14.75,0,*54
1484302023.42,26371,5.56,71596.0,-5.41,-11.77,-14.79,0,*5A
1484302024.65,26372,5.56,71592.5,-5.43,-11.81,-14.89,0,*5D
1484302025.91,26373,5.56,71588.8,-5.43,-11.67,-14.75,0,*57
1484302027.17,26374,5.56,71592.5,-5.43,-11.89,-15.01,0,*52
1484302028.43,26375,5.56,71592.5,-5.43,-11.77,-14.79,0,*5C
1484302029.69,26376,5.56,71594.8,-5.43,-11.67,-14.75,0,*52
1484302030.92,26377,5.56,71594.0,-5.43,-11.51,-14.61,0,*53
1484302032.18,26378,5.56,71594.8,-5.43,-11.63,-14.79,0,*54
1484302033.43,26379,5.56,71594.5,-5.43,-11.45,-14.51,0,*5B
1484302034.71,26380,5.56,71592.8,-5.45,-11.37,-14.55,0,*5A
1484302035.94,26381,5.56,71592.3,-5.43,-11.51,-14.61,0,*5A
1484302037.21,26382,5.56,71588.3,-5.43,-11.63,-14.93,0,*55
1484302038.47,26383,5.56,71588.5,-5.41,-11.93,-15.07,0,*55
1484302039.71,26384,5.56,71592.0,-5.43,-12.07,-15.11,0,*59
1484302040.97,26385,5.56,71592.3,-5.43,-12.07,-15.35,0,*5E
1484302042.21,26386,5.56,71590.5,-5.43,-11.93,-15.07,0,*52
1484302043.45,26387,5.56,71594.0,-5.43,-11.93,-15.11,0,*54
1484302044.71,26388,5.56,71594.3,-5.45,-11.59,-14.69,0,*55
1484302045.95,26389,5.56,71588.8,-5.43,-11.23,-14.51,0,*54
1484302047.19,26390,5.56,71590.3,-5.43,-11.55,-14.89,0,*58
1484302048.45,26391,5.56,71592.3,-5.43,-11.63,-14.75,0,*5F
1484302049.68,26392,5.56,71594.3,-5.43,-11.37,-14.61,0,*58
1484302050.94,26393,5.56,71598.3,-5.43,-11.77,-14.93,0,*50
1484302052.23,26394,5.56,71598.0,-5.41,-11.93,-14.93,0,*5F
1484302053.5,26395,5.56,71598.3,-5.41,-11.89,-15.07,0,*59
1484302054.75,26396,5.56,71596.3,-5.41,-12.21,-15.25,0,*5B
1484302056.01,26397,5.56,71598.8,-5.41,-11.89,-15.07,0,*5B
1484302057.28,26398,5.56,71598.5,-5.41,-11.93,-15.11,0,*58
1484302058.54,26399,5.56,71596.0,-5.41,-11.89,-15.07,0,*55
1484302059.8,26400,5.56,71596.3,-5.41,-11.89,-15.07,0,*52
1484302061.07,26401,5.56,71596.0,-5.41,-11.89,-15.07,0,*53
1484302062.3,26402,5.56,71598.8,-5.39,-11.45,-14.75,0,*5B
1484302063.54,26403,5.56,71602.0,-5.41,-11.23,-14.65,0,*54
1484302064.76,26404,5.56,71600.5,-5.39,-11.45,-14.89,0,*5E
1484302065.96,26405,5.56,71602.5,-5.35,-11.41,-14.69,0,*59
1484302067.2,26406,5.56,71596.8,-5.39,-11.89,-15.29,0,*57
1484302068.46,26407,5.56,71598.3,-5.39,-11.77,-15.21,0,*5F
1484302069.69,26408,5.56,71596.3,-5.39,-12.11,-15.63,0,*55
1484302070.95,26409,5.56,71598.0,-5.39,-12.11,-15.57,0,*53
1484302072.19,26410,5.56,71594.5,-5.35,-11.73,-15.25,0,*55
1484302073.44,26411,5.56,71596.0,-5.39,-11.73,-15.21,0,*5C
1484302074.68,26412,5.56,71592.3,-5.39,-11.97,-15.49,0,*5B
1484302075.92,26413,5.56,71596.5,-5.39,-11.97,-15.49,0,*5A
1484302077.18,26414,5.56,71598.0,-5.39,-11.89,-15.35,0,*59
1484302078.41,26415,5.56,71600.8,-5.35,-11.73,-15.25,0,*50
1484302079.68,26416,5.56,71598.5,-5.39,-11.89,-15.43,0,*5A
1484302080.94,26417,5.56,71604.0,-5.39,-11.85,-15.43,0,*57
1484302082.19,26418,5.56,71602.3,-5.35,-11.81,-15.39,0,*5D
1484302083.43,26419,5.56,71600.8,-5.35,-11.85,-15.29,0,*59
1484302084.71,26420,5.56,71602.3,-5.33,-11.55,-15.01,0,*52
1484302085.97,26421,5.56,71602.3,-5.33,-11.45,-14.93,0,*58
1484302087.24,26422,5.56,71600.0,-5.33,-11.67,-15.25,0,*57
1484302088.51,26423,5.56,71598.8,-5.33,-11.93,-15.53,0,*5C
1484302089.77,26424,5.56,71596.3,-5.33,-11.85,-15.29,0,*51
1484302091.01,26425,5.56,71600.0,-5.31,-12.21,-15.99,0,*54
1484302092.28,26426,5.56,71596.8,-5.33,-12.25,-15.85,0,*5C
1484302093.5,26427,5.56,71592.8,-5.33,-12.43,-16.03,0,*50
1484302094.76,26428,5.56,71592.0,-5.33,-12.29,-15.85,0,*5E
1484302096.03,26429,5.56,71596.5,-5.31,-12.39,-16.09,0,*5B
1484302097.26,26430,5.56,71596.5,-5.35,-12.57,-16.41,0,*53
1484302098.52,26431,5.56,71588.8,-5.33,-12.79,-16.41,0,*58
1484302099.72,26432,5.56,71580.3,-5.35,-13.19,-16.93,0,*55
1484302100.95,26433,5.56,71582.3,-5.35,-13.65,-17.45,0,*55
1484302102.19,26434,5.56,71588.3,-5.35,-13.51,-17.17,0,*52
1484302103.42,26435,5.56,71586.8,-5.39,-13.47,-17.11,0,*5E
1484302104.7,26436,5.56,71590.8,-5.41,-13.33,-17.03,0,*52
1484302105.99,26437,5.56,71590.5,-5.41,-13.37,-17.11,0,*54
1484302107.28,26438,5.56,71588.3,-5.41,-13.01,-16.69,0,*50
1484302108.49,26439,5.56,71586.5,-5.43,-13.15,-16.79,0,*57
1484302109.72,26440,5.56,71582.5,-5.43,-13.07,-16.69,0,*5B
1484302110.93,26441,5.56,71584.0,-5.43,-12.89,-16.41,0,*57
1484302112.19,26442,5.56,71576.3,-5.43,-13.01,-16.51,0,*54